Temperature
14 14 14 14 14 14 14 14 14 13 13 13 13 13 13 13 13 13 13 14 14 14 14 14 14 14 14 14 14 14 14 14 14 14 15 15 15 15
13 13 13 13 13 13 13 13 13 13 13 13 13 13 13 13 13 13 13 13 13 13 13 13 13 14 14 14 14 14 14 14 14 14 14 14 14 15
13 13 13 13 13 13 13 13 13 13 13 13 13 13 13 13 13 13 13 13 13 13 13 13 13 13 13 13 13 13 14 14 14 14 14 14 14 14
13 13 13 13 13 13 13 13 13 13 12 12 12 13 13 13 13 13 13 13 13 13 13 13 13 13 13 13 13 13 13 13 13 13 14 14 14 14
13 13 13 13 13 12 12 12 12 12 12 12 12 12 12 12 12 12 12 12 12 13 13 13 13 13 13 13 13 13 13 13 13 13 13 13 13 13
13 12 12 12 12 12 12 12 12 12 12 12 12 12 12 12 12 12 12 12 12 12 12 12 12 12 12 12 12 12 12 12 13 13 13 13 13 13
12 12 12 12 12 12 12 12 11 11 11 11 11 11 11 11 11 11 11 11 12 12 12 12 12 12 12 12 12 12 12 12 12 12 12 12 12 12
12 12 12 12 12 11 11 11 11 11 11 11 11 10 10 10 10 10 10 10 11 11 11 11 11 11 11 12 11 11 11 11 11 11 11 12 12 12
12 12 11 11 11 11 11 11 11 11 10 10 10 10 10 10 10 10 10 10 10 10 10 10 10 11 11 11 11 11 11 11 11 11 11 11 11 11
11 11 11 11 11 11 11 11 11 10 10 10 10 9 9 9 9 9 9 9 9 9 9 9 10 10 10 10 10 10 10 10 10 10 10 11 11 11
11 11 10 10 10 10 10 10 10 10 10 9 9 9 9 9 9 9 9 9 9 9 9 8 8 9 9 10 10 10 10 10 10 10 10 10 10 10
10 10 10 10 10 10 10 10 10 9 9 9 9 9 9 8 8 8 8 8 8 8 8 7 7 7 8 8 9 9 9 9 9 9 9 9 9 9
10 10 10 9 9 9 9 9 9 9 9 9 8 8 8 8 8 8 7 7 7 7 7 7 7 7 6 7 7 8 8 8 8 8 8 8 8 9
9 9 9 9 9 9 9 8 8 8 8 8 8 8 8 8 7 7 7 7 7 6 6 6 6 6 6 6 6 7 7 7 7 7 8 8 8 8
9 9 8 8 8 8 8 8 8 7 7 7 7 7 7 7 7 6 6 6 6 6 6 6 6 5 5 5 5 6 6 6 7 7 7 7 7 7
8 8 8 8 8 7 7 7 7 7 6 6 6 6 6 6 6 6 6 6 6 6 6 6 5 5 5 5 5 5 5 5 5 6 6 6 6 7
8 8 7 7 7 7 7 6 6 6 6 6 6 5 5 5 5 5 5 5 5 5 5 5 5 5 5 5 5 5 5 5 5 5 5 5 6 6
7 7 7 6 6 6 6 6 5 5 5 5 5 5 5 5 5 5 4 4 4 4 4 4 4 4 4 5 4 4 4 4 4 4 4 4 5 6
7 6 6 6 6 5 5 5 5 5 5 5 4 4 4 4 4 4 4 4 4 4 4 4 3 3 3 3 4 4 3 3 3 4 4 4 4 4
6 6 5 5 5 5 5 5 4 4 4 4 4 4 4 4 4 3 3 3 3 3 3 3 3 3 2 2 2 3 3 3 3 3 3 3 3 4
6 5 5 5 5 5 4 4 4 4 4 4 3 3 3 3 3 3 3 3 3 3 2 3 3 2 2 2 2 2 3 2 2 2 2 2 3 3
5 5 5 5 4 4 4 4 4 3 3 3 3 3 3 3 2 2 2 2 2 2 2 2 2 2 2 2 2 2 2 2 2 2 2 2 2 2
5 5 4 4 4 4 3 3 3 3 3 2 2 2 2 2 2 2 2 1 1 1 1 1 2 2 1 1 1 1 1 1 2 2 2 2 2 2
Wind_Speed
4 4 3 3 3 3 2 2 2 1 2 3 3 4 6 4 5 4 4 6 6 7 7 7 7 7 6 6 6 7 7 7 7 7 7 7 7 7
3 4 4 3 4 3 3 2 2 2 1 2 2 4 5 5 7 6 6 7 8 7 8 8 8 7 7 7 7 8 7 7 7 7 7 7 8 8
4 4 3 3 3 3 3 3 2 2 0 3 2 3 3 4 6 7 7 7 8 9 8 9 8 8 8 8 8 8 7 6 6 6 7 7 8 9
4 4 3 3 4 3 3 3 2 1 1 1 3 3 3 4 4 4 6 7 8 9 9 9 9 9 9 9 10 9 8 6 6 7 7 8 8 9
2 3 2 2 3 2 3 3 2 2 1 1 2 2 2 4 4 4 5 5 8 8 9 9 10 10 10 10 10 10 9 8 8 8 8 8 9 9
3 3 2 2 1 2 2 2 2 3 2 2 2 3 3 3 3 3 5 4 5 6 7 9 10 11 10 11 11 11 10 10 10 10 9 9 9 10
4 4 4 4 5 4 3 2 2 2 2 2 2 3 3 4 4 3 4 5 4 3 3 5 6 6 8 10 10 11 11 11 11 11 11 11 11 11
3 4 4 5 6 7 7 6 4 2 1 1 2 2 4 4 3 4 3 4 4 3 3 4 3 4 6 8 10 11 12 12 11 11 11 11 11 11
3 3 4 6 6 4 6 8 7 7 4 1 2 3 4 4 3 4 4 3 5 5 3 5 4 4 6 9 11 11 11 11 11 11 11 11 11 11
2 2 2 4 5 4 4 5 5 5 5 3 2 4 4 4 3 3 4 4 5 4 2 4 4 5 6 8 11 11 11 12 12 12 12 11 10 10
3 3 3 3 7 8 5 4 5 6 8 8 7 7 8 8 5 2 3 3 5 4 2 2 4 5 5 5 8 11 12 12 13 12 11 11 10 10
3 3 5 6 8 8 4 3 5 6 6 7 7 7 7 7 7 2 1 2 3 4 3 2 3 4 5 4 4 8 9 11 12 11 11 11 10 7
2 3 4 8 9 9 6 3 5 6 4 4 4 4 4 4 4 4 2 2 3 5 4 2 3 3 4 5 5 5 5 6 7 8 10 11 10 7
1 2 4 8 9 9 7 7 9 7 3 3 3 4 4 5 5 5 5 5 5 7 7 3 3 4 4 5 6 5 5 6 5 5 7 9 10 11
2 5 7 8 8 6 8 10 7 3 3 3 4 4 4 5 4 4 5 6 6 7 7 5 4 4 4 5 6 5 5 5 4 4 5 6 6 6
3 5 7 8 5 6 7 6 4 3 3 3 4 5 4 4 4 4 4 4 4 5 6 7 6 5 5 6 6 7 6 5 4 5 6 6 6 7
2 2 3 4 4 4 4 5 4 4 4 4 4 4 5 4 4 4 3 3 4 5 6 5 6 7 7 7 7 7 6 6 6 5 5 7 7 7
2 2 3 4 4 5 5 5 4 4 4 4 4 4 5 6 6 5 4 4 5 6 6 6 5 6 6 5 7 7 6 6 6 6 6 7 9 7
1 3 4 4 5 5 5 5 5 5 5 4 5 5 6 6 6 6 6 6 6 6 7 5 5 5 8 10 6 7 6 7 6 6 6 7 9 9
2 4 4 5 5 5 5 5 5 5 5 5 5 6 6 6 6 6 6 7 7 7 7 6 5 6 8 10 10 8 9 8 7 8 8 7 8 10
4 4 5 5 5 5 5 5 5 6 6 6 6 6 6 6 6 7 7 9 8 7 9 9 8 11 8 6 7 8 6 10 12 9 8 8 9 8
4 5 5 5 5 5 5 5 5 6 6 6 6 6 6 6 7 8 8 8 7 8 9 9 8 7 6 8 10 11 10 8 10 15 16 14 9 8
5 5 5 5 5 5 5 5 6 6 6 6 6 6 6 6 7 7 8 8 8 9 9 9 8 6 7 8 9 10 11 11 8 8 9 13 18 20
Wind_Direction
48 47 43 24 33 42 63 97 124 47 331 316 324 328 334 331 323 315 319 324 326 330 335 336 333 329 323 322 314 303 292 284 278 274 270 265 263 255
40 47 35 23 29 33 41 42 82 138 266 301 297 306 333 346 341 329 318 322 320 318 320 324 327 323 319 318 319 316 299 282 274 273 275 272 264 262
36 48 30 29 37 27 33 39 46 89 126 302 306 322 347 346 348 343 332 324 320 321 317 319 321 318 316 316 314 320 309 291 282 276 275 276 273 265
30 38 19 34 35 25 31 27 22 40 99 324 318 332 336 336 334 337 344 340 330 329 330 325 321 319 317 316 316 318 316 305 296 288 282 280 279 274
38 41 13 38 23 14 23 18 6 22 41 22 317 319 322 338 341 335 337 336 335 330 329 329 324 317 313 310 311 312 310 306 301 294 290 287 284 281
38 43 35 48 24 12 21 10 17 25 19 11 336 326 318 320 341 333 332 328 323 328 334 332 330 324 316 311 305 302 301 300 296 292 288 286 285 283
30 29 35 44 40 34 35 12 33 29 12 5 340 337 329 334 328 314 318 316 311 314 323 325 329 329 324 318 308 301 297 296 294 291 287 284 282 282
33 19 25 31 22 21 26 26 27 17 345 337 317 312 299 299 307 319 319 333 316 311 319 309 324 315 320 321 315 311 305 301 298 296 291 284 281 279
44 31 26 16 15 10 9 12 10 6 352 278 274 281 283 284 301 311 305 299 282 290 310 298 307 306 311 317 318 318 318 316 309 305 301 293 285 281
36 47 36 3 4 7 8 3 350 339 330 327 269 271 280 278 260 271 279 297 292 292 294 285 301 302 307 310 315 321 325 322 316 311 305 299 291 283
16 22 22 4 356 6 14 354 341 331 337 338 334 330 328 333 336 346 340 337 314 301 302 284 291 302 297 294 311 324 326 320 315 311 308 303 297 293
355 350 351 352 348 355 1 347 332 315 322 332 338 338 339 340 343 339 284 303 302 297 299 299 292 315 306 293 304 317 319 315 311 307 304 301 297 297
339 330 327 342 346 345 344 328 310 315 317 323 326 327 327 326 324 321 279 240 268 274 288 300 292 296 280 293 298 292 296 303 306 303 298 294 289 280
291 298 309 333 341 341 338 329 332 339 338 334 328 318 311 306 300 301 304 290 267 264 279 274 274 277 281 289 291 295 295 292 290 290 294 298 294 285
291 313 327 336 339 338 337 338 340 339 330 320 307 295 285 283 291 301 305 307 302 297 300 289 274 275 266 270 279 285 295 291 277 284 289 286 280 278
331 329 333 336 335 326 330 332 328 311 306 288 287 287 293 300 299 296 294 300 302 298 299 300 290 274 274 273 272 281 281 280 290 290 285 280 276 272
323 341 340 334 330 324 320 315 310 314 310 298 294 298 300 299 296 296 287 287 285 291 298 299 301 287 260 262 273 273 275 281 283 287 291 290 282 272
352 323 305 300 297 297 299 302 300 296 290 287 290 291 293 294 294 294 286 281 283 284 285 290 304 311 306 283 240 260 271 275 282 282 276 281 286 281
321 287 287 288 288 290 289 288 289 288 285 284 286 287 289 291 293 293 292 290 287 284 283 280 281 286 297 298 279 247 265 282 282 282 274 270 279 282
270 271 278 281 282 285 286 286 286 290 288 284 282 283 283 285 288 287 284 281 283 287 288 280 267 263 270 281 286 282 262 258 272 280 283 281 278 279
276 273 273 275 277 279 280 281 282 285 286 285 286 285 283 282 283 282 281 281 282 284 286 284 273 273 273 276 281 282 272 261 260 267 275 283 288 287
273 275 277 278 279 280 281 282 286 287 287 285 285 286 285 283 282 285 286 287 285 283 285 287 286 284 271 272 277 283 287 285 275 273 265 260 266 271
274 275 277 281 280 280 279 281 285 287 286 285 286 287 288 287 285 284 285 284 285 287 291 293 292 281 273 270 276 282 285 289 290 288 279 270 264 265
Height
1556 1556 1555 1554 1553 1553 1552 1551 1551 1549 1549 1548 1548 1547 1546 1545 1543 1542 1541 1540 1538 1536 1534 1533 1532 1531 1531 1530 1529 1528 1526 1526 1527 1529 1530 1531 1532 1532
1557 1556 1555 1555 1554 1553 1552 1551 1551 1550 1549 1548 1547 1546 1545 1544 1542 1541 1540 1539 1537 1536 1534 1533 1531 1530 1529 1528 1526 1523 1521 1521 1522 1524 1526 1527 1528 1529
1558 1557 1556 1555 1554 1553 1552 1551 1550 1550 1548 1547 1547 1545 1544 1542 1541 1540 1538 1537 1535 1534 1533 1532 1530 1529 1527 1525 1523 1520 1518 1517 1519 1521 1522 1523 1524 1525
1558 1557 1556 1555 1554 1553 1552 1551 1550 1549 1548 1546 1545 1544 1543 1541 1540 1538 1537 1535 1534 1532 1531 1530 1528 1527 1525 1523 1521 1518 1517 1516 1517 1518 1519 1519 1520 1520
1557 1556 1556 1555 1553 1553 1552 1550 1549 1548 1547 1545 1543 1542 1541 1539 1538 1536 1535 1533 1532 1530 1528 1527 1526 1524 1523 1521 1520 1517 1515 1515 1515 1515 1515 1515 1515 1516
1557 1556 1555 1554 1553 1552 1551 1549 1548 1547 1545 1544 1542 1540 1539 1537 1535 1533 1532 1530 1529 1527 1526 1524 1523 1522 1520 1519 1517 1516 1514 1513 1512 1512 1512 1512 1511 1511
1556 1555 1554 1553 1552 1551 1549 1548 1547 1545 1543 1542 1540 1538 1536 1534 1533 1531 1529 1527 1526 1524 1522 1521 1520 1518 1517 1516 1514 1513 1512 1510 1509 1508 1508 1507 1507 1506
1555 1554 1553 1552 1551 1549 1548 1546 1545 1543 1541 1540 1538 1536 1534 1533 1531 1529 1527 1524 1522 1522 1519 1517 1516 1514 1513 1512 1511 1509 1508 1507 1505 1504 1503 1503 1502 1501
1554 1553 1552 1550 1549 1548 1546 1545 1543 1541 1540 1538 1536 1534 1532 1530 1528 1526 1524 1522 1520 1518 1516 1513 1512 1510 1509 1508 1506 1505 1503 1502 1501 1500 1499 1498 1497 1496
1553 1551 1550 1549 1547 1546 1544 1542 1540 1539 1537 1536 1534 1532 1530 1528 1526 1524 1522 1519 1517 1515 1513 1510 1508 1506 1504 1503 1502 1500 1499 1497 1496 1495 1494 1493 1492 1491
1551 1550 1548 1547 1545 1543 1541 1539 1538 1536 1535 1533 1531 1529 1528 1526 1523 1521 1518 1515 1512 1511 1510 1507 1503 1501 1499 1498 1497 1495 1494 1492 1491 1490 1488 1487 1486 1485
1550 1548 1546 1544 1543 1540 1539 1537 1535 1533 1531 1530 1528 1526 1524 1522 1520 1518 1515 1513 1510 1507 1505 1503 1500 1498 1494 1492 1491 1490 1488 1487 1485 1484 1483 1482 1481 1479
1547 1545 1544 1542 1540 1538 1536 1534 1532 1530 1528 1526 1524 1522 1520 1518 1516 1515 1513 1510 1507 1504 1503 1500 1497 1494 1492 1487 1485 1485 1483 1481 1479 1478 1477 1476 1475 1473
1545 1543 1541 1539 1537 1535 1533 1531 1529 1527 1525 1522 1520 1518 1516 1514 1512 1510 1508 1506 1504 1502 1499 1497 1493 1491 1487 1483 1480 1478 1477 1476 1474 1472 1470 1469 1468 1467
1542 1540 1538 1536 1534 1532 1530 1527 1525 1523 1521 1518 1516 1514 1512 1510 1508 1505 1503 1501 1499 1497 1494 1492 1489 1486 1483 1480 1476 1473 1471 1469 1468 1466 1464 1462 1461 1460
1539 1537 1535 1533 1531 1529 1526 1524 1522 1520 1517 1515 1512 1510 1508 1505 1503 1500 1497 1495 1492 1489 1488 1486 1484 1481 1477 1474 1471 1468 1466 1464 1461 1460 1457 1455 1454 1453
1535 1533 1531 1529 1527 1524 1522 1520 1518 1515 1513 1511 1508 1505 1502 1500 1497 1495 1492 1489 1486 1483 1480 1479 1477 1475 1471 1468 1465 1462 1460 1458 1456 1453 1451 1448 1446 1445
1532 1529 1527 1525 1522 1520 1517 1515 1513 1511 1508 1506 1503 1500 1497 1494 1491 1489 1487 1484 1480 1477 1475 1472 1470 1466 1463 1460 1460 1456 1453 1451 1449 1447 1444 1441 1437 1437
1528 1525 1523 1521 1518 1516 1513 1511 1508 1506 1503 1501 1498 1495 1492 1489 1486 1483 1480 1477 1474 1471 1469 1466 1464 1461 1456 1451 1449 1450 1447 1444 1441 1439 1437 1434 1430 1428
1524 1521 1519 1517 1514 1511 1509 1506 1503 1501 1498 1495 1492 1489 1486 1483 1480 1477 1474 1471 1468 1464 1461 1459 1457 1454 1451 1447 1442 1440 1441 1438 1435 1431 1428 1426 1423 1421
1519 1517 1515 1512 1509 1506 1504 1501 1498 1495 1492 1489 1486 1483 1480 1477 1474 1471 1467 1464 1461 1458 1454 1451 1449 1448 1444 1440 1436 1431 1431 1431 1428 1425 1422 1419 1415 1411
1515 1512 1509 1507 1504 1501 1498 1495 1492 1489 1486 1483 1480 1477 1474 1471 1467 1464 1461 1458 1454 1451 1447 1444 1441 1439 1436 1433 1428 1424 1422 1420 1419 1417 1415 1413 1409 1404
1510 1507 1504 1501 1498 1495 1492 1489 1486 1483 1480 1476 1473 1470 1467 1464 1461 1458 1454 1451 1447 1444 1440 1436 1433 1431 1428 1425 1422 1418 1415 1412 1409 1406 1405 1403 1402 1399